Weather in Principe

São Tomé and Príncipe     1°37′00″N   7°24′29″E
temp.,
°C
wind,
m/s
gust,
m/s
humid.,
%
clouds,
%
prec.,
mm/h
press.,
hPa
HPBL,
m
24 september, fri
fri2400:00+26sw2280100 0.1 1012368
03:00+26ssw228389 0.2 1011259
06:00+26ssw228173 0.3 1013263
09:00+26ssw2280100 0.0 1015300
12:00+26ssw227939 0.1 1013380
15:00+26sw337961 1.1 1011361
18:00+27sw448050 1.2 1012549
21:00+26sw558398 0.0 1013454
25 september, sat
sat2500:00+26wsw4484100 0.0 1013441
03:00+26sw338595 0.6 1012396
06:00+25ssw3386100 1.6 1013144
09:00+26s4482100 0.8 1015378
12:00+26s3384100 4.1 1013197
15:00+26ese4480100 3.2 1011394
18:00+26sse2282100 6.3 1013130
21:00+26wsw227923 0.3 1014301
26 september, sun
sun2600:00+26w568183 0.3 1013506
03:00+26w558094 0.0 1012634
06:00+26w338162 0.2 1014460
09:00+26w338299 4.2 1015143
12:00+26wnw1176100 5.2 1013290
15:00+26nw227599 0.1 1011446
18:00+26nw237753 0.1 1012536
21:00+26wnw347913 0.0 1014642
27 september, mon
mon2700:00+26w55805 0.1 1012620
03:00+26w5580100 0.2 1011639
06:00+26wsw448111 0.3 1013560
09:00+26wsw448120 0.0 1014581
12:00+26sw55805 0.1 1012484
15:00+26sw668161 0.4 1010435
18:00+26sw56814 2.2 1011494
21:00+26ssw55795 0.1 1013547
28 september, tue
tue2800:00+26sw458215 0.1 1011592
03:00+26sw4484100 1.3 1010423
06:00+26sw348269 1.6 1012471
09:00+26ssw338056 0.0 1013465
12:00+26ssw227997 0.6 1011403
15:00+26sw337864 2.0 1009507
18:00+26s557950 2.1 1010630
21:00+26ssw45805 0.1 1012592